Tracking 23762 objects as of 19-Oct-2021
HD Live streaming from Space Station
objects crossing your sky now

RADUGA 4

Track RADUGA 4 now!
RADUGA 4 is classified as:


NORAD ID: 10987
Int'l Code: 1978-073A
Perigee: 35,774.9 km
Apogee: 35,849.4 km
Inclination: 9.0 °
Period: 1,437.0 minutes
Semi major axis: 42183 km
RCS: 1 m2 (large)
Launch date: July 18, 1978
Source: Commonwealth of Independent States (former USSR) (CIS)
Launch site: TYURATAM MISSILE AND SPACE COMPLEX (TTMTR)
aabbcc
Your satellite tracking list
Your tracking list is empty




NASA's NSSDC Master Catalog

Two Line Element Set (TLE):
1 10987U 78073A   21292.03225749 -.00000275  00000-0  00000+0 0  9992
2 10987   9.0202 299.5837 0008834 349.5653 204.2010  1.00206159102524
Source of the keplerian elements: AFSPC